DateTimeUTC,F1_A11,F1_S11,BsB_S11,BsG_S11,BsR_S11,BbsB_S11,BbsG_S11,BbsR_S11,BaB_A11,BaG_A11,BaR_A11,Tu_S11,T_S11,Uu_S11,U_S11,P_S11,T1_A11
2021-11-29T06:00:00Z,00000200,21000000,,,,,,,0000.10,-000.07,0000.31,18.5,25.7,,00.0,0634.7,30.8
2021-11-29T06:01:00Z,00000200,21000000,,,,,,,-000.06,-000.05,0000.28,18.5,25.7,,00.0,0634.7,30.8
2021-11-29T06:02:00Z,00000200,21000000,,,,,,,-000.27,-000.42,-000.36,18.5,25.7,,00.0,0634.7,30.8
2021-11-29T06:03:00Z,00000200,61000000,,,,,,,0000.17,0000.02,-000.18,18.5,25.7,,00.0,0634.7,30.8
2021-11-29T06:04:00Z,00000200,41000000,0000.06,0000.01,-000.19,-000.50,0000.06,0000.15,-000.00,0000.31,0000.24,18.8,25.5,,00.0,0635.6,30.8
2021-11-29T06:05:00Z,00000200,01000000,0000.14,0000.15,0000.51,-000.38,0000.33,0000.22,0000.17,0000.00,-000.27,18.9,25.5,,00.0,0635.6,30.9
2021-11-29T06:06:00Z,00000200,01000000,-000.39,0000.31,-000.19,0000.21,0000.43,-000.00,0000.02,0000.25,0000.01,19.0,25.5,,00.0,0635.6,30.8
2021-11-29T06:07:00Z,00000200,01000000,0000.24,0000.10,0000.04,-000.26,0000.28,0000.31,0000.05,-000.22,0000.23,19.0,25.4,,00.0,0635.6,30.8
2021-11-29T06:08:00Z,00000200,01000000,0000.12,0000.18,0000.03,-000.73,0000.29,-000.08,-000.18,-000.14,-000.25,19.0,25.5,,00.0,0635.6,30.9
2021-11-29T06:09:00Z,00000200,01000000,-000.06,-000.01,-000.00,-000.38,0000.08,0000.05,0000.28,0000.35,0000.07,19.0,25.4,,00.0,0635.6,30.9
2021-11-29T06:10:00Z,00000200,01000000,0000.75,0000.17,-000.08,0000.37,0000.39,-000.15,0000.04,0000.28,0000.23,19.0,25.4,,00.0,0635.5,30.8
2021-11-29T06:11:00Z,00000200,01000000,0000.15,-000.21,0000.41,0000.31,0000.49,0000.01,-000.01,-000.07,0000.26,19.0,25.5,,00.0,0635.5,30.9
2021-11-29T06:12:00Z,00000200,01000000,0000.04,0000.09,-000.16,-000.75,0000.20,0000.07,0000.36,0000.38,0000.35,19.1,25.5,,00.0,0635.5,30.9
2021-11-29T06:13:00Z,00000200,01000000,0000.43,-000.21,-000.06,-000.17,-000.05,-000.26,0000.32,-000.05,0000.01,19.1,25.5,,00.0,0635.5,30.9
2021-11-29T06:14:00Z,00000200,01000000,0000.42,0000.36,0000.20,0000.17,0000.30,0000.06,0000.18,0000.30,-000.11,19.1,25.5,,00.0,0635.4,30.9
2021-11-29T06:15:00Z,00000200,01000000,0000.39,0000.32,0000.54,-000.58,0000.22,0000.31,0000.03,-000.01,0000.38,19.1,25.5,,00.0,0635.4,30.9
2021-11-29T06:16:00Z,00000200,01000000,-000.18,0000.17,0000.28,-000.50,0000.27,0000.04,-000.09,0000.00,-000.38,19.1,25.5,,00.0,0635.4,30.9
2021-11-29T06:17:00Z,00000200,01000000,-000.14,0000.14,0000.03,-000.59,0000.46,0000.15,0000.11,0000.16,0000.38,19.1,25.5,,00.0,0635.4,30.9
2021-11-29T06:18:00Z,00000200,01000000,0000.60,-000.04,0000.21,0000.21,0000.34,-000.18,0000.05,-000.06,-000.13,19.2,25.5,,00.0,0635.4,30.9
2021-11-29T06:19:00Z,00000200,01000000,0000.04,0000.34,0000.16,-000.85,-000.01,0000.45,0000.15,-000.14,0000.09,19.2,25.5,,00.0,0635.5,30.9
2021-11-29T06:20:00Z,00000200,01000000,0000.91,0000.25,0000.15,-000.49,-000.01,0000.13,0000.35,0000.50,0000.19,19.2,25.5,,00.0,0635.4,30.9
2021-11-29T06:21:00Z,00000200,01000000,-000.03,0000.13,-000.16,-000.03,0000.20,-000.03,-000.06,0000.12,0000.06,19.2,25.5,,00.0,0635.4,30.9
2021-11-29T06:22:00Z,00000200,01000000,0000.08,0000.07,0000.40,-000.48,0000.38,0000.14,0000.18,-000.28,-000.25,19.2,25.5,,00.0,0635.5,30.9
2021-11-29T06:23:00Z,00000200,01000000,0000.12,0000.12,0000.11,-000.06,0000.26,0000.36,-000.16,0000.22,0000.28,19.2,25.5,,00.0,0635.5,30.9
2021-11-29T06:24:00Z,00000200,01000000,0000.69,0000.27,0000.24,-000.05,0000.30,0000.01,-000.03,0000.05,-000.20,19.2,25.5,,00.0,0635.5,30.9
2021-11-29T06:25:00Z,00000200,01000000,0000.14,0000.09,-000.04,-000.54,0000.03,0000.12,0000.01,0000.15,0000.32,19.2,25.5,,00.0,0635.5,30.9
2021-11-29T06:26:00Z,00000200,01000000,0000.70,0000.28,0000.03,0000.26,0000.25,0000.32,0000.14,-000.01,-000.17,19.3,25.5,,00.0,0635.5,30.9
2021-11-29T06:27:00Z,00000200,01000000,0000.18,0000.12,0000.18,-000.62,0000.23,0000.02,0000.16,-000.02,0000.30,19.3,25.5,,00.0,0635.5,30.9
2021-11-29T06:28:00Z,00000200,01000000,0000.08,0000.16,0000.15,-000.31,0000.25,-000.06,0000.11,-000.01,-000.03,19.3,25.5,,00.0,0635.6,30.9
2021-11-29T06:29:00Z,00000200,01000000,-000.27,0000.33,0000.23,-000.06,0000.13,0000.23,-000.08,0000.23,-000.17,19.3,25.5,,00.0,0635.6,30.9
2021-11-29T06:30:00Z,00000200,01000000,0000.35,0000.12,-000.01,-000.37,0000.39,0000.28,-000.08,-000.25,-000.00,19.3,25.5,,00.0,0635.6,30.9
2021-11-29T06:31:00Z,00000200,01000000,0000.15,0000.56,0000.31,-000.60,0000.37,0000.32,0000.08,0000.18,-000.09,19.3,25.5,,00.0,0635.6,30.9
2021-11-29T06:32:00Z,00000200,01000000,0000.15,0000.03,0000.00,-000.20,0000.26,-000.16,0000.22,0000.07,0000.16,19.3,25.6,,00.0,0635.6,30.9
2021-11-29T06:33:00Z,00000200,01000000,0000.34,0000.00,0000.15,-000.56,0000.48,0000.09,0000.27,0000.08,0000.09,19.3,25.6,,00.0,0635.6,30.9
2021-11-29T06:34:00Z,00000200,01000000,0000.33,0000.28,0000.19,-000.67,0000.23,0000.09,-000.19,-000.16,-000.33,19.4,25.6,,00.0,0635.6,30.9
2021-11-29T06:35:00Z,00000200,01000000,-000.56,0000.16,-000.05,-000.28,0000.25,0000.02,-000.16,0000.40,0000.44,19.4,25.6,,00.0,0635.5,30.9
2021-11-29T06:36:00Z,00000200,01000000,0000.48,0000.35,0000.22,0000.18,0000.57,0000.24,0000.27,-000.11,0000.12,19.4,25.6,,00.0,0635.5,30.9
2021-11-29T06:37:00Z,00000200,01000000,0000.54,0000.24,0000.54,-000.66,-000.01,0000.34,0000.38,0000.51,0000.15,19.4,25.6,,00.0,0635.5,30.9
2021-11-29T06:38:00Z,00000200,01000000,0000.51,0000.10,0000.38,0000.06,0000.32,0000.45,0000.11,-000.31,-000.09,19.4,25.6,,00.0,0635.4,30.9
2021-11-29T06:39:00Z,00000200,01000000,0000.45,-000.04,0000.13,-000.76,0000.13,-000.11,0000.02,0000.11,0000.05,19.4,25.6,,00.0,0635.3,30.9
2021-11-29T06:40:00Z,00000200,01000000,0000.39,0000.20,-000.13,0000.04,-000.14,-000.12,0000.47,0000.43,0000.45,19.4,25.6,,00.0,0635.3,30.9
2021-11-29T06:41:00Z,00000200,01000000,0000.28,0000.04,0000.22,-000.36,0000.15,-000.18,0000.28,0000.21,0000.39,19.4,25.6,,00.0,0635.3,30.9
2021-11-29T06:42:00Z,00000200,01000000,0000.13,0000.16,0000.20,-000.13,0000.18,0000.03,0000.25,0000.46,0000.06,19.4,25.6,,00.0,0635.3,30.9
2021-11-29T06:43:00Z,00000200,01000000,0000.21,0000.34,0000.08,-000.51,0000.51,-000.39,-000.06,0000.04,-000.21,19.4,25.6,,00.0,0635.3,30.9
2021-11-29T06:44:00Z,00000200,01000000,0000.18,0000.38,0000.12,-000.27,0000.03,0000.17,0000.10,-000.11,0000.12,19.5,25.6,,00.0,0635.3,30.9
2021-11-29T06:45:00Z,00000200,01000000,0000.25,0000.38,-000.09,-000.26,0000.25,0000.44,0000.05,0000.10,0000.33,19.4,25.6,,00.0,0635.2,30.9
2021-11-29T06:46:00Z,00000200,01000000,-000.23,0000.49,0000.07,0000.04,0000.47,-000.33,-000.18,-000.12,-000.18,19.4,25.6,,00.0,0635.2,30.9
2021-11-29T06:47:00Z,00000200,01000000,0001.31,0000.05,-000.10,-000.22,0000.20,0000.23,0000.39,0000.29,0000.22,19.5,25.6,,00.0,0635.2,30.9
2021-11-29T06:48:00Z,00000200,01000000,0000.17,0000.27,0000.11,0000.02,0000.55,0000.26,0000.07,-000.22,-000.01,19.5,25.7,,00.0,0635.1,30.9
2021-11-29T06:49:00Z,00000200,01000000,0000.39,0000.00,0000.28,-000.28,0000.24,0000.10,0000.00,0000.18,-000.07,19.5,25.7,,00.0,0635.1,30.9
2021-11-29T06:50:00Z,00000200,01000000,0000.42,-000.13,0000.42,-000.07,-000.14,0000.34,0000.04,0000.27,0000.21,19.5,25.7,,00.0,0635.1,30.9
2021-11-29T06:51:00Z,00000200,01000000,0000.80,-000.07,-000.15,-000.16,0000.17,0000.30,0000.05,0000.06,0000.11,19.5,25.7,,00.0,0635.1,30.9
2021-11-29T06:52:00Z,00000200,01000000,0000.55,0000.10,0000.22,0000.27,0000.17,0000.10,0000.48,0000.06,0000.19,19.5,25.7,,00.0,0635.1,30.9
2021-11-29T06:53:00Z,00000200,01000000,0001.05,0000.30,0000.25,-000.71,-000.03,0000.32,0000.18,0000.26,-000.04,19.5,25.7,,00.0,0635.1,30.9
2021-11-29T06:54:00Z,00000200,01000000,0000.49,0000.29,0000.17,-000.44,0000.27,0000.21,-000.10,0000.30,0000.25,19.5,25.7,,00.0,0635.1,30.9
2021-11-29T06:55:00Z,00000200,01000000,0000.13,0000.06,0000.09,-000.40,0000.22,0000.11,0000.25,-000.17,-000.07,19.4,25.7,,00.0,0635.0,30.9
2021-11-29T06:56:00Z,00000200,01000000,-000.31,-000.08,-000.07,-000.46,0000.16,0000.05,-000.13,-000.02,-000.02,19.4,25.7,,00.0,0635.0,30.9
2021-11-29T06:57:00Z,00000200,41000000,,,,,,,0000.04,0000.06,0000.26,19.4,25.7,,00.0,0635.0,30.9
2021-11-29T06:58:00Z,00000200,61000000,,,,,,,0000.30,0000.38,0000.20,19.0,25.7,,00.0,0634.1,30.9
2021-11-29T06:59:00Z,00000200,21000000,,,,,,,0000.16,-000.08,-000.09,19.0,25.8,,00.0,0634.1,30.9
